Location: Middle Street
(51.7167°N, 0.0333°E)
Time: 02:11:22
(UTC+00:00)

Meteor 2-1 Rocket - Pass Details

Date: 20 January 2021
Orbit: 827 x 910 km, 81.3° (Epoch: 28 February)

Event Time Altitude Azimuth Distance (km) Brightness Sun altitude
Rises 18:38:30 0° 346° (NNW) 3,430 7.5 -19.7°
Reaches altitude 10° 18:40:57 10° 345° (NNW) 2,479 6.7 -20.1°
Maximum altitude 18:46:33 76° 261° (W) 865 4.3 -21.0°
Drops below altitude 10° 18:52:02 10° 176° (S) 2,429 6.6 -21.8°
Sets 18:54:24 0° 175° (S) 3,355 7.3 -22.2°
